Previsão horária em Centereach

Hoje, 3 Agosto, Terça-feira

Tempo Temperatura Precipitação Vento Pressão Humidade
00:00 +23°C° 0 mm 2 m/s 760 mmHg 56%
01:00 +21°C° 0 mm 2 m/s 761 mmHg 59%
02:00 +21°C° 0 mm 2 m/s 761 mmHg 59%
03:00 +22°C° 0 mm 1 m/s 761 mmHg 59%
04:00 +21°C° 0 mm 1 m/s 761 mmHg 60%
05:00 +22°C° 0 mm 1 m/s 761 mmHg 59%
06:00 +22°C° 0 mm 1 m/s 761 mmHg 57%
07:00 +23°C° 0 mm 1 m/s 761 mmHg 57%
08:00 +24°C° 0 mm 1 m/s 762 mmHg 53%
09:00 +25°C° 0 mm 1 m/s 762 mmHg 49%
10:00 +26°C° 0 mm 1 m/s 762 mmHg 44%
11:00 +26°C° 0 mm 1 m/s 762 mmHg 42%
12:00 +27°C° 0 mm 1 m/s 761 mmHg 39%
13:00 +27°C° 0 mm 2 m/s 761 mmHg 37%
14:00 +27°C° 0 mm 1 m/s 761 mmHg 37%
15:00 +27°C° 0 mm 1 m/s 761 mmHg 36%
16:00 +27°C° 0 mm 1 m/s 760 mmHg 36%
17:00 +26°C° 0 mm 1 m/s 761 mmHg 42%
18:00 +25°C° 0 mm 2 m/s 761 mmHg 49%
19:00 +24°C° 0 mm 2 m/s 761 mmHg 55%
20:00 +24°C° 0 mm 2 m/s 761 mmHg 62%
21:00 +24°C° 0 mm 2 m/s 761 mmHg 69%
22:00 +22°C° 0 mm 3 m/s 761 mmHg 76%
23:00 +23°C° 0 mm 2 m/s 761 mmHg 77%

Amanhã, 4 Agosto, Quarta-feira

Tempo Temperatura Precipitação Vento Pressão Humidade
00:00 +23°C° 0 mm 2 m/s 761 mmHg 79%
01:00 +22°C° 0 mm 1 m/s 761 mmHg 81%
02:00 +22°C° 0 mm 1 m/s 761 mmHg 81%
03:00 +22°C° 0 mm 1 m/s 761 mmHg 81%
04:00 +22°C° 0 mm 1 m/s 760 mmHg 82%
05:00 +22°C° 0 mm 1 m/s 761 mmHg 79%
06:00 +23°C° 0 mm 1 m/s 761 mmHg 77%
07:00 +23°C° 0 mm 1 m/s 761 mmHg 74%
08:00 +24°C° 0 mm 2 m/s 762 mmHg 70%
09:00 +24°C° 0 mm 2 m/s 762 mmHg 65%
10:00 +25°C° 0 mm 2 m/s 762 mmHg 60%
11:00 +25°C° 0 mm 3 m/s 762 mmHg 60%
12:00 +26°C° 0 mm 3 m/s 762 mmHg 59%
13:00 +26°C° 0 mm 4 m/s 762 mmHg 59%
14:00 +25°C° 0 mm 4 m/s 762 mmHg 62%
15:00 +25°C° 0 mm 5 m/s 762 mmHg 64%
16:00 +23°C° 0 mm 5 m/s 762 mmHg 67%
17:00 +22°C° 0.1 mm 6 m/s 761 mmHg 69%
18:00 +22°C° 0.1 mm 6 m/s 761 mmHg 72%
19:00 +21°C° 0.1 mm 6 m/s 761 mmHg 74%
20:00 +21°C° 6.4 mm 6 m/s 761 mmHg 81%
21:00 +20°C° 6.4 mm 6 m/s 760 mmHg 89%
22:00 +20°C° 6.4 mm 6 m/s 760 mmHg 96%
23:00 +20°C° 2.6 mm 7 m/s 760 mmHg 95%

Depois de amanhã, 5 Agosto, Quinta-feira

Tempo Temperatura Precipitação Vento Pressão Humidade
00:00 +20°C° 2.6 mm 8 m/s 759 mmHg 95%
01:00 +20°C° 2.6 mm 8 m/s 759 mmHg 95%
02:00 +18°C° 0.1 mm 8 m/s 759 mmHg 94%
03:00 +18°C° 0.1 mm 7 m/s 759 mmHg 93%
04:00 +19°C° 0.1 mm 6 m/s 759 mmHg 92%
05:00 +20°C° 0 mm 5 m/s 760 mmHg 90%
06:00 +20°C° 0 mm 5 m/s 760 mmHg 87%
07:00 +20°C° 0 mm 4 m/s 761 mmHg 85%
08:00 +21°C° 0 mm 4 m/s 761 mmHg 80%
09:00 +22°C° 0 mm 4 m/s 761 mmHg 75%
10:00 +25°C° 0 mm 4 m/s 761 mmHg 69%
11:00 +25°C° 0 mm 3 m/s 761 mmHg 67%
12:00 +26°C° 0 mm 3 m/s 761 mmHg 65%
13:00 +27°C° 0 mm 3 m/s 761 mmHg 62%
14:00 +26°C° 0 mm 3 m/s 761 mmHg 65%
15:00 +26°C° 0 mm 3 m/s 761 mmHg 67%
16:00 +25°C° 0 mm 3 m/s 761 mmHg 70%
17:00 +25°C° 0 mm 3 m/s 761 mmHg 74%
18:00 +24°C° 0 mm 3 m/s 761 mmHg 77%
19:00 +23°C° 0 mm 2 m/s 762 mmHg 81%
20:00 +23°C° 0 mm 2 m/s 762 mmHg 83%
21:00 +23°C° 0 mm 1 m/s 762 mmHg 85%
22:00 +22°C° 0 mm 1 m/s 762 mmHg 87%
23:00 +20°C° 0 mm 0 m/s 762 mmHg 87%

6 Agosto, Sexta-feira

Tempo Temperatura Precipitação Vento Pressão Humidade
00:00 +20°C° 0 mm 0 m/s 762 mmHg 87%
01:00 +20°C° 0 mm 0 m/s 762 mmHg 88%
02:00 +21°C° 0 mm 1 m/s 762 mmHg 88%
03:00 +21°C° 0 mm 1 m/s 762 mmHg 88%
04:00 +20°C° 0 mm 2 m/s 762 mmHg 89%
05:00 +21°C° 0 mm 2 m/s 762 mmHg 85%
06:00 +23°C° 0 mm 1 m/s 762 mmHg 81%
07:00 +24°C° 0 mm 1 m/s 762 mmHg 77%
08:00 +25°C° 0 mm 1 m/s 762 mmHg 69%
09:00 +27°C° 0 mm 1 m/s 762 mmHg 61%
10:00 +29°C° 0 mm 1 m/s 762 mmHg 52%
11:00 +29°C° 0 mm 2 m/s 762 mmHg 50%
12:00 +30°C° 0 mm 2 m/s 762 mmHg 47%
13:00 +30°C° 0 mm 2 m/s 761 mmHg 44%
14:00 +30°C° 0 mm 3 m/s 761 mmHg 47%
15:00 +29°C° 0 mm 3 m/s 761 mmHg 50%
16:00 +29°C° 0 mm 3 m/s 761 mmHg 53%
17:00 +28°C° 0 mm 4 m/s 761 mmHg 58%
18:00 +27°C° 0 mm 4 m/s 761 mmHg 64%
19:00 +26°C° 0 mm 4 m/s 761 mmHg 69%
20:00 +26°C° 0 mm 4 m/s 761 mmHg 70%
21:00 +25°C° 0 mm 4 m/s 761 mmHg 72%
22:00 +25°C° 0 mm 4 m/s 761 mmHg 73%
23:00 +25°C° 0 mm 4 m/s 761 mmHg 71%

7 Agosto, Sábado

Tempo Temperatura Precipitação Vento Pressão Humidade
00:00 +25°C° 0 mm 4 m/s 761 mmHg 70%
01:00 +25°C° 0 mm 4 m/s 761 mmHg 69%
02:00 +25°C° 0 mm 4 m/s 761 mmHg 68%
03:00 +25°C° 0 mm 3 m/s 760 mmHg 66%
04:00 +24°C° 0 mm 3 m/s 760 mmHg 65%
05:00 +25°C° 0 mm 3 m/s 760 mmHg 64%
06:00 +25°C° 0 mm 3 m/s 760 mmHg 63%
07:00 +26°C° 0 mm 3 m/s 760 mmHg 62%
08:00 +27°C° 0 mm 4 m/s 760 mmHg 57%
09:00 +28°C° 0 mm 4 m/s 760 mmHg 53%
10:00 +29°C° 0 mm 5 m/s 760 mmHg 48%
11:00 +29°C° 0 mm 5 m/s 760 mmHg 48%
12:00 +29°C° 0 mm 5 m/s 760 mmHg 48%
13:00 +29°C° 0 mm 5 m/s 760 mmHg 47%
14:00 +29°C° 0 mm 5 m/s 759 mmHg 50%
15:00 +29°C° 0 mm 5 m/s 759 mmHg 52%
16:00 +28°C° 0 mm 5 m/s 759 mmHg 54%
17:00 +28°C° 0 mm 5 m/s 759 mmHg 58%
18:00 +27°C° 0 mm 5 m/s 758 mmHg 62%
19:00 +26°C° 0 mm 5 m/s 758 mmHg 65%
20:00 +27°C° 0 mm 5 m/s 758 mmHg 65%
21:00 +27°C° 0 mm 5 m/s 759 mmHg 64%
22:00 +27°C° 0 mm 4 m/s 759 mmHg 63%
23:00 +27°C° 0 mm 4 m/s 759 mmHg 61%

8 Agosto, Domingo

Tempo Temperatura Precipitação Vento Pressão Humidade
00:00 +26°C° 0 mm 4 m/s 758 mmHg 59%
01:00 +26°C° 0 mm 4 m/s 758 mmHg 57%
02:00 +26°C° 0 mm 4 m/s 758 mmHg 59%
03:00 +25°C° 0 mm 4 m/s 758 mmHg 61%
04:00 +25°C° 0 mm 4 m/s 758 mmHg 63%
05:00 +25°C° 0 mm 3 m/s 758 mmHg 60%
06:00 +26°C° 0 mm 3 m/s 759 mmHg 58%
07:00 +26°C° 0 mm 3 m/s 759 mmHg 56%
08:00 +28°C° 0 mm 3 m/s 759 mmHg 52%
09:00 +29°C° 0 mm 3 m/s 759 mmHg 48%
10:00 +31°C° 0 mm 3 m/s 759 mmHg 44%
11:00 +33°C° 0 mm 3 m/s 759 mmHg 43%
12:00 +32°C° 0 mm 2 m/s 759 mmHg 42%
13:00 +34°C° 0 mm 2 m/s 759 mmHg 42%
14:00 +33°C° 0 mm 3 m/s 759 mmHg 45%
15:00 +31°C° 0 mm 3 m/s 759 mmHg 48%
16:00 +30°C° 0 mm 3 m/s 758 mmHg 51%
17:00 +29°C° 0 mm 4 m/s 759 mmHg 55%
18:00 +28°C° 0 mm 4 m/s 759 mmHg 59%
19:00 +27°C° 0 mm 4 m/s 759 mmHg 63%
20:00 +27°C° 0 mm 4 m/s 759 mmHg 66%
21:00 +27°C° 0 mm 3 m/s 760 mmHg 69%
22:00 +26°C° 0 mm 3 m/s 760 mmHg 72%
23:00 +26°C° 0 mm 2 m/s 760 mmHg 75%
Mostrar mais

Necessitamos do seu Consentimento

A Meteoprog e os seus Fornecedores de Serviços podem armazenar e aceder a dados pessoais como cookies, identificadores do dispositivo ou outras tecnologias semelhantes existentes no seu dispositivo e processar estes dados para personalizar conteúdos e anúncios, assim como funcionalidades nas redes sociais e análise de tráfego.

  • Armazenar e/ou aceder a informações no seu dispositivo

    Os cookies, identificadores do dispositivo ou outras informações podem ser armazenados ou acedidos no seu dispositivo, para os fins acima indicados.

  • Anúncios e conteúdos personalizados, medição de anúncios e conteúdos, dados sobre o público-alvo e desenvolvimento de produtos

    Os anúncios e os conteúdos podem ser personalizados com base num perfil. Podem ser adicionados dados adicionais para uma maior personalização dos anúncios e dos conteúdos. A eficácia dos anúncios e dos conteúdos pode ser medida. Podem ser obtidas informações sobre o público que visualizou os anúncios e os conteúdos. Estes dados podem ser usados para desenvolver ou melhorar sistemas, softwares ou a experiência do utilizador.

Ao clicar em "Eu concordo”, permitirá o uso de cookies, identificadores do dispositivo e web beacons mencionados ou outras tecnologias semelhantes. As configurações do navegador do seu dispositivo podem ser alteradas.

Para certos fins, podem ser invocados interesses legítimos ao invés de consentimento. Pode ler mais informação sobre este assunto na nossa Política de Privacidade e Cookies.